Regional Weather Roundup
Issued by NWS Raleigh/Durham, NC

Home | Current Version | Previous Version | Text Only | Print | Product List | Glossary On
Versions: 1 2 3 4 5 6 7 8 9 10 11 12 13 14 15 16 17 18 19 20 21 22 23 24 25 26 27 28 29 30 31 32 33 34 35 36 37 38 39 40 41 42 43 44 45 46 47 48 49 50
000
ASUS42 KRAH 211510
RWRRAH
NORTH CAROLINA WEATHER ROUNDUP
NATIONAL WEATHER SERVICE RALEIGH NC
1000 AM EST THU NOV 21 2019

NOTE: "FAIR" INDICATES FEW OR NO CLOUDS BELOW 12,000 FEET WITH NO
SIGNIFICANT WEATHER AND/OR OBSTRUCTIONS TO VISIBILITY.

NCZ001-053-055-056-065-067-211600-
WESTERN NORTH CAROLINA

CITY           SKY/WX    TMP DP  RH WIND       PRES   REMARKS
ASHEVILLE      FAIR      45  37  73 SE5       30.29F
JEFFERSON      FAIR      42  31  65 CALM      30.25S
MORGANTON      FAIR      46  37  70 CALM      30.34R
HICKORY        FAIR      45  39  79 NW3       30.31R
WILKESBORO     NOT AVBL
RUTHERFORDTON  FAIR      48  37  66 S6        30.32S
MOUNT AIRY     FAIR      47  39  74 CALM      30.32R
BOONE            N/A     46  33  60 CALM      30.25S
$$

NCZ021-022-025-041-071-084-088-211600-
CENTRAL NORTH CAROLINA

CITY           SKY/WX    TMP DP  RH WIND       PRES   REMARKS
CHARLOTTE      FAIR      50  36  58 SE8       30.32S
GREENSBORO     PTSUNNY   49  34  56 S9        30.30R
WINSTON-SALEM  FAIR      47  34  60 S7        30.32R
RALEIGH-DURHAM PTSUNNY   50  35  56 E3        30.33R
FORT BRAGG     FAIR      50  34  53 E5        30.32S
FAYETTEVILLE   FAIR      50  34  54 VRB5      30.33R
BURLINGTON     FAIR      50  34  54 CALM      30.31F
ROXBORO        FAIR      46  34  61 CALM      30.33F
HENDERSON      FAIR      45  30  55 CALM      30.32S
LOUISBURG      FAIR      46  32  57 NE5       30.35S
LAURINBURG     FAIR      51  37  58 E8        30.33F
$$

NCZ011-015-027-028-043-044-047-080-103-211600-
NORTHEASTERN NORTH CAROLINA

CITY           SKY/WX    TMP DP  RH WIND       PRES   REMARKS
ROCKY MT-WILSO FAIR      50  36  58 N6        30.33R
GREENVILLE     FAIR      48  34  57 N6        30.32S
WASHINGTON     FAIR      49  34  57 N5        30.32R
ELIZABETH CITY FAIR      51  37  58 N10       30.30R
MANTEO         FAIR      49  39  67 N9        30.29R
CAPE HATTERAS  FAIR      52  42  69 VRB6      30.29R
$$

NCZ078-087-090-091-093-098-101-211600-
SOUTHEASTERN NORTH CAROLINA

CITY           SKY/WX    TMP DP  RH WIND       PRES   REMARKS
GOLDSBORO      MOSUNNY   50  34  53 CALM      30.35S
KINSTON        SUNNY     50  36  57 NE5       30.34R
KENANSVILLE    FAIR      50  36  57 NE6       30.33S
NEW BERN       FAIR      48  35  60 NE8       30.32S
CHERRY POINT   FAIR      52  35  52 N10       30.32S
BEAUFORT       FAIR      52  37  56 N14       30.30R
JACKSONVILLE   FAIR      51  33  50 NE7       30.32S
WILMINGTON     FAIR      52  35  52 NE7       30.33R
$$




USA.gov is the U.S. government's official web portal to all federal, state and local government web resources and services.